Simultaneous Nadir Overpasses (SNOs) Predictions

Prediction of SNOs between FY3D and NOAA-19 Satellite Orbit:

Table of predicted SNOs for the next 14.0 days since TLE Epoch: 2/6/2021
Index Date (FY3D) Time (FY3D) Lat,Lon (FY3D) SZA (FY3D ) Date (NOAA-19) Time (NOAA-19) Lat,Lon (NOAA-19) SZA (NOAA-19 ) Distance(km) Time Diff (sec)
1 02/16/2021 02:52:47 -78.75, -70.09 87.52 02/16/2021 02:51:33 -78.71, -70.68 87.46 13.28 74
2 02/16/2021 03:43:33 78.79, 96.96 92.53 02/16/2021 03:42:32 78.79, 97.09 92.54 2.86 61
3 02/16/2021 04:34:17 -78.79, -95.70 87.49 02/16/2021 04:33:31 -78.80, -95.57 87.47 3.06 46
4 02/16/2021 05:25:02 78.79, 71.59 92.51 02/16/2021 05:24:32 78.80, 71.70 92.52 2.58 30
5 02/16/2021 06:15:46 -78.79,-121.08 87.51 02/16/2021 06:15:32 -78.78,-121.21 87.50 3.07 14
6 02/16/2021 07:06:31 78.79, 46.21 92.49 02/16/2021 07:06:32 78.81, 46.30 92.50 3.19 1
7 02/16/2021 07:57:15 -78.79,-146.45 87.54 02/16/2021 07:57:32 -78.79,-146.60 87.53 3.26 17
8 02/16/2021 08:47:59 78.79, 20.84 92.46 02/16/2021 08:48:32 78.79, 20.66 92.47 3.91 33
9 02/16/2021 09:38:44 -78.83,-172.06 87.51 02/16/2021 09:39:31 -78.81,-171.99 87.55 2.56 47
10 02/16/2021 10:29:29 78.83, -4.78 92.49 02/16/2021 10:30:32 78.81, -4.73 92.45 2.45 63



Historial Predications of SNOs between FY3D and NOAA-19
